sat.trackr.live / text

‹ back to catalog

STARLINK-35913

NORAD 67004 · 2025-293B

PAYLOAD ACTIVE UNKNOWN

§ Identity

Operator
Country
US
Launch date
2025-12-10
Launch site
AFWTR
Launch vehicle
Mass (kg)
RCS (m²)

Purposes: comms

External: N2YO · Heavens-Above · Gunter

§ Orbital elements

Epoch: 2026-09-20T14:24:59.036256Z

Period
96.11 min
Inclination
70.0011°
Eccentricity
0.0003754
Mean motion
14.98335102 rev/d
Perigee alt
569.4 km
Apogee alt
574.6 km
Semi-major
6,950.2 km
B*
1.8342e-4
RAAN
323.0161°
Arg perigee
270.5906°
Mean anomaly
89.4823°
Rev number
4,407

§ Raw data

STARLINK-359131 67004U 25293B   26263.60068329  .00002097  00000+0  18342-3 0  99992 67004  70.0011 323.0161 0003754 270.5906  89.4823 14.98335102 44077

JSON: /api/v1/satellites/67004 · /tle

For live sub-satellite position, see the globe view (requires WebGL).

§ Visibility from observer

Set your observer location to see the next 7 days of passes ≥ 10°. The values pass through the URL so the page stays shareable.

No JS? Fill the form by hand. The geolocation button needs JavaScript.